Regional Weather Roundup
Issued by NWS

Home | Current Version | Previous Version | Graphics & Text | Print | Product List | Glossary On
Versions: 1 2 3 4 5 6 7 8 9 10 11 12 13 14 15 16 17 18 19 20 21 22 23 24 25 26 27 28
000
ASUS45 KTFX 041510
RWRMT
MONTANA REGIONAL WEATHER ROUNDUP
NATIONAL WEATHER SERVICE GREAT FALLS MT
900 AM MDT WED MAY 04 2016

NOTE: "FAIR" INDICATES FEW OR NO CLOUDS BELOW 12000 FEET WITH NO
SIGNIFICANT WEATHER AND/OR OBSTRUCTIONS TO VISIBILITY.

MTZ001>007-043-041600-
WEST OF THE DIVIDE

CITY           SKY/WX    TMP DP  RH WIND       PRES   REMARKS
KALISPELL      PTSUNNY   57  41  55 NE6       30.02F
MISSOULA       PTSUNNY   53  41  63 CALM      30.08F
BUTTE          SUNNY     52  31  44 CALM      30.16F
MULLAN PASS    CLOUDY    54  31  41 SW5       30.12S
ANACONDA         N/A     57  30  35 SE9       30.12F
DEER LODGE       N/A     54  34  47 CALM      30.12F
EUREKA           N/A     55  43  62 CALM      30.02F
HAMILTON         N/A     55  36  47 S3        30.07F
LIBBY            N/A     54  41  62 CALM      30.02F
PLAINS           N/A     53  47  80 CALM      30.03S
$$

MTZ008-052>055-041600-
SOUTHWEST MONTANA

CITY           SKY/WX    TMP DP  RH WIND       PRES   REMARKS
BOZEMAN        SUNNY     56  37  49 E6        30.13F
DILLON         CLOUDY    53  32  44 SW8       30.15F
ENNIS          SUNNY     57  36  44 S5        30.21F
$$

MTZ009-010-012-014-046-048-049-054-041600-
EAST SLOPES AND CENTRAL MONTANA

CITY           SKY/WX    TMP DP  RH WIND       PRES   REMARKS
CUT BANK       SUNNY     60  41  49 NW3       29.99F
GREAT FALLS    SUNNY     65  37  35 S16       30.00F
MALMSTROM AFB  SUNNY     64  39  40 SW3       30.00F
HELENA         SUNNY     55  37  50 CALM      30.09F
CHOTEAU          N/A     63  39  42 SW8       30.00F
CONRAD           N/A     62  47  58 NE1       30.01S
$$

MTZ011-013-016-021-045-047-050-051-041600-
NORTH CENTRAL MONTANA

CITY           SKY/WX    TMP DP  RH WIND       PRES   REMARKS
HAVRE          SUNNY     59  47  64 CALM      29.97F
LEWISTOWN      SUNNY     66  41  40 CALM      30.05F
N BAR RANCH      N/A     70  39  32 NW3       30.08F
CHINOOK          N/A     61  46  59 CALM      29.98F
$$

MTZ017>020-022>027-061-062-041600-
NORTHEAST MONTANA

CITY           SKY/WX    TMP DP  RH WIND       PRES   REMARKS
GLASGOW        SUNNY     62  42  47 SE10      30.00F
JORDAN           N/A     61  48  62 CALM      30.02F
SIDNEY         SUNNY     63  45  51 S12       30.06F
WOLF POINT     SUNNY     64  43  46 E3        30.03F
POPLAR           N/A     64  43  45 SE3       30.04F
SCOBEY           N/A     65  38  36 S2        30.00F
$$

MTZ028>42-056>058-041600-
SOUTHCENTRAL AND SOUTHEAST MONTANA

CITY           SKY/WX    TMP DP  RH WIND       PRES   REMARKS
BAKER          SUNNY     69  42  37 S14       30.11F
BILLINGS       SUNNY     59  40  49 SW10      30.08F
LIVINGSTON     SUNNY     57  34  41 SE5       30.12F
MILES CITY     SUNNY     62  43  49 SE8       30.06F
EKALAKA          N/A     68  36  30 SE12      30.09F
FORSYTH          N/A     64  48  55 NW3       30.04F
LAUREL           N/A     62  43  49 S9        30.05F
ROUNDUP          N/A     57  39  51 S7        29.96F
$$

REGIONAL REPORTS...DAKOTAS

CITY           SKY/WX    TMP DP  RH WIND       PRES   REMARKS
WILLISTON      SUNNY     65  44  46 SW5       30.05F
MINOT          SUNNY     66  33  29 S5        30.05F
DICKINSON      SUNNY     68  39  34 SW12      30.08F
BEACH            N/A     68  41  37 S14       30.12F
CROSBY           N/A     68  41  37 S13       30.04F
TIOGA            N/A     66  36  32 SW17      30.10F
WATFORD CITY     N/A     66  41  39 SW7       30.07F
BISMARCK       SUNNY     58  36  43 SE5       30.12F
GRAND FORKS    MOSUNNY   53  37  54 N6        30.11F
FARGO          SUNNY     55  36  48 NW6       30.10S
BUFFALO SD       N/A     62  45  53 S3        30.06F
RAPID CITY     SUNNY     63  42  46 SW3       30.16F
$$

REGIONAL REPORTS...WYOMING/IDAHO/WASHINGTON

CITY           SKY/WX    TMP DP  RH WIND       PRES   REMARKS
GILLETTE       SUNNY     63  43  48 S15       30.14F
SHERIDAN       SUNNY     59  44  57 CALM      30.11F
BUFFALO WY     SUNNY     65  38  36 SE5       30.16S
CODY           SUNNY     63  30  29 SW10      30.15S
YELLOWSTONE LA   N/A     38  24  57 CALM      30.34S
IDAHO FALLS    MOSUNNY   54  36  50 NW7       30.17S
SALMON         MOSUNNY   48  34  57 CALM      30.13F
BOISE          MOSUNNY   61  39  44 NW3       29.99S
SPOKANE        PTSUNNY   57  45  64 S8        30.01R
$$

REGIONAL REPORTS...ALBERTA

CITY           SKY/WX    TMP DP  RH WIND       PRES   REMARKS
EDMONTON       MOSUNNY   66  39  37 W7        29.80S
CALGARY        PTSUNNY   63  32  31 SW7       29.92F
LETHBRIDGE     MOSUNNY   66  41  39 SW6       29.94F
MEDICINE HAT   SUNNY     68  45  42 SW9       29.92S
WATERTON GATE    N/A     63  37  39 S9          N/A
CARDSTON         N/A     66  41  39 SE2         N/A
MILK RIVER       N/A     61  43  51 W7          N/A
$$

REGIONAL REPORTS...SASKATCHEWAN

CITY           SKY/WX    TMP DP  RH WIND       PRES   REMARKS
SWIFT CURRENT  SUNNY     73  39  29 SW16      29.93F
REGINA         MOSUNNY   70  43  37 SE8       29.97F
SASKATOON      SUNNY     68  43  40 S13       29.85F
CYPRESS HILLS    N/A     68  36  30 W8          N/A
VAL MARIE        N/A     66  41  39 SW9         N/A
ROCKGLEN         N/A     68  39  34 S12         N/A
ASSINIBOIA       N/A     72  36  26 W10         N/A
$$




USA.gov is the U.S. government's official web portal to all federal, state and local government web resources and services.